BAW864 EGLL-LHBP

Flight info

Callsign BAW864
Flight time N/A
Altitude 35000
Route BPK Q295 BRAIN M197 REDFA L620 TACHA DCT OTMEC DCT NOMKA DCT OMELO DCT EVIKU DCT BNO DCT ODNEM DCT BERVA DCT NIT M748 ARFOX
Aircraft A320/M-SDE3FGHIRWY/LB1

Departure

Time N/A
Airport London Heathrow Airport (EGLL)

Arrival

Time 2026-05-05 20:52
Airport Budapest Liszt Ferenc International Airport (LHBP)
Time Latitude Longitude Altitude Speed Heading
2026-05-05 19:37 51.57616 9.64917 34818 ft 441 kts 108°
2026-05-05 19:37 51.56209 9.74477 34796 ft 442 kts 108°
2026-05-05 19:38 51.54782 9.84112 34796 ft 442 kts 108°
2026-05-05 19:38 51.53350 9.93717 34795 ft 443 kts 108°
2026-05-05 19:39 51.51915 10.03348 34798 ft 443 kts 108°
2026-05-05 19:39 51.50466 10.12991 34799 ft 443 kts 108°
2026-05-05 19:40 51.49020 10.22536 34785 ft 443 kts 108°
2026-05-05 19:40 51.47551 10.32177 34785 ft 443 kts 108°
2026-05-05 19:41 51.46324 10.40168 34787 ft 443 kts 109°
2026-05-05 19:41 51.44836 10.49789 34797 ft 444 kts 109°
2026-05-05 19:42 51.43091 10.60949 34786 ft 443 kts 109°
2026-05-05 19:42 51.41825 10.68940 34789 ft 443 kts 109°
2026-05-05 19:43 51.40294 10.78524 34786 ft 443 kts 109°
2026-05-05 19:43 51.38763 10.88055 34797 ft 444 kts 109°
2026-05-05 19:44 51.37214 10.97642 34804 ft 444 kts 109°
2026-05-05 19:44 51.35661 11.07213 34777 ft 444 kts 109°
2026-05-05 19:45 51.34112 11.16715 34787 ft 444 kts 109°
2026-05-05 19:45 51.32539 11.26281 34790 ft 444 kts 109°
2026-05-05 19:46 51.30955 11.35866 34794 ft 445 kts 109°
2026-05-05 19:46 51.29380 11.45371 34798 ft 445 kts 109°
2026-05-05 19:47 51.27788 11.54931 34778 ft 445 kts 109°
2026-05-05 19:47 51.26178 11.64514 34774 ft 447 kts 110°
2026-05-05 19:48 51.24563 11.74072 34775 ft 448 kts 110°
2026-05-05 19:48 51.22931 11.83702 34781 ft 449 kts 110°
2026-05-05 19:49 51.21288 11.93344 34781 ft 450 kts 110°
2026-05-05 19:49 51.19645 12.02923 34759 ft 451 kts 109°
2026-05-05 19:50 51.17973 12.12615 34754 ft 454 kts 110°
2026-05-05 19:50 51.16289 12.22283 34770 ft 454 kts 109°
2026-05-05 19:51 51.14598 12.31988 34783 ft 454 kts 109°
2026-05-05 19:51 51.12901 12.41690 34787 ft 454 kts 110°
2026-05-05 19:52 51.11190 12.51384 34765 ft 455 kts 110°
2026-05-05 19:52 51.09466 12.61092 34767 ft 456 kts 110°
2026-05-05 19:53 51.07747 12.70748 34772 ft 456 kts 110°
2026-05-05 19:53 51.06002 12.80484 34775 ft 457 kts 110°
2026-05-05 19:54 51.04260 12.90142 34765 ft 457 kts 110°
2026-05-05 19:54 51.02497 12.99862 34767 ft 457 kts 110°
2026-05-05 19:55 51.00725 13.09579 34766 ft 458 kts 110°
2026-05-05 19:55 50.98950 13.19314 34775 ft 458 kts 110°
2026-05-05 19:56 50.97179 13.28969 34780 ft 458 kts 110°
2026-05-05 19:56 50.95378 13.38661 34757 ft 459 kts 110°
2026-05-05 19:57 50.93564 13.48403 34758 ft 461 kts 110°
2026-05-05 19:57 50.91742 13.58184 34760 ft 462 kts 110°
2026-05-05 19:58 50.89918 13.67888 34765 ft 462 kts 110°
2026-05-05 19:58 50.88065 13.77679 34772 ft 463 kts 110°
2026-05-05 19:59 50.86213 13.87389 34773 ft 463 kts 110°
2026-05-05 19:59 50.84028 13.96945 34768 ft 457 kts 122°
2026-05-05 20:00 50.80360 14.04989 34772 ft 447 kts 139°
2026-05-05 20:00 50.75830 14.11576 34768 ft 445 kts 142°
2026-05-05 20:01 50.71244 14.18190 34745 ft 445 kts 141°
2026-05-05 20:01 50.66689 14.24748 34761 ft 446 kts 141°
2026-05-05 20:02 50.62102 14.31336 34754 ft 446 kts 141°
2026-05-05 20:02 50.57505 14.37915 34768 ft 446 kts 141°
2026-05-05 20:03 50.52923 14.44435 34764 ft 446 kts 142°
2026-05-05 20:03 50.48311 14.50980 34764 ft 446 kts 142°
2026-05-05 20:04 50.43917 14.57829 34730 ft 449 kts 136°
2026-05-05 20:04 50.39685 14.65073 34731 ft 450 kts 136°
2026-05-05 20:05 50.35442 14.72308 34737 ft 451 kts 136°
2026-05-05 20:05 50.31173 14.79555 34745 ft 452 kts 136°
2026-05-05 20:06 50.26909 14.86775 34752 ft 452 kts 136°
2026-05-05 20:06 50.22662 14.93947 34742 ft 452 kts 136°
2026-05-05 20:07 50.18389 15.01147 34745 ft 451 kts 136°
2026-05-05 20:07 50.14111 15.08327 34749 ft 451 kts 136°
2026-05-05 20:08 50.09831 15.15493 34754 ft 451 kts 136°
2026-05-05 20:08 50.05575 15.22598 34750 ft 451 kts 136°
2026-05-05 20:09 50.01285 15.29740 34729 ft 451 kts 135°
2026-05-05 20:09 49.96975 15.36878 34731 ft 452 kts 136°
2026-05-05 20:10 49.92681 15.43975 34735 ft 453 kts 135°
2026-05-05 20:10 49.88351 15.51122 34742 ft 453 kts 136°
2026-05-05 20:11 49.84019 15.58261 34739 ft 454 kts 136°
2026-05-05 20:11 49.79716 15.65338 34746 ft 453 kts 136°
2026-05-05 20:12 49.75382 15.72439 34763 ft 453 kts 136°
2026-05-05 20:12 49.71063 15.79493 34767 ft 452 kts 136°
2026-05-05 20:13 49.66723 15.86552 34771 ft 452 kts 136°
2026-05-05 20:13 49.62380 15.93601 34760 ft 452 kts 136°
2026-05-05 20:14 49.58042 16.00630 34763 ft 452 kts 136°
2026-05-05 20:14 49.53705 16.07622 34765 ft 453 kts 136°
2026-05-05 20:15 49.49373 16.14592 34769 ft 453 kts 136°
2026-05-05 20:15 49.45004 16.21605 34772 ft 453 kts 136°
2026-05-05 20:16 49.40649 16.28579 34765 ft 453 kts 136°
2026-05-05 20:16 49.36277 16.35572 34766 ft 454 kts 136°
2026-05-05 20:17 49.31881 16.42582 34770 ft 454 kts 136°
2026-05-05 20:17 49.27510 16.49525 34775 ft 455 kts 136°
2026-05-05 20:18 49.23110 16.56488 34786 ft 455 kts 136°
2026-05-05 20:18 49.18707 16.63429 34795 ft 455 kts 136°
2026-05-05 20:19 49.14285 16.70396 34807 ft 456 kts 136°
2026-05-05 20:19 49.09929 16.77372 34807 ft 457 kts 136°
2026-05-05 20:20 49.05562 16.84457 34806 ft 457 kts 135°
2026-05-05 20:20 49.01190 16.91510 34787 ft 457 kts 136°
2026-05-05 20:21 48.96822 16.98488 34783 ft 457 kts 136°
2026-05-05 20:21 48.92418 17.05503 34791 ft 458 kts 136°
2026-05-05 20:22 48.88029 17.12466 34797 ft 458 kts 136°
2026-05-05 20:22 48.83616 17.19469 34802 ft 457 kts 136°
2026-05-05 20:23 48.79216 17.26475 34817 ft 457 kts 136°
2026-05-05 20:23 48.74854 17.33425 34819 ft 457 kts 136°
2026-05-05 20:24 48.70459 17.40406 34827 ft 457 kts 136°
2026-05-05 20:24 48.66054 17.47349 34828 ft 457 kts 136°
2026-05-05 20:25 48.61673 17.54231 34820 ft 457 kts 136°
2026-05-05 20:25 48.57274 17.61164 34825 ft 457 kts 136°
2026-05-05 20:26 48.52859 17.68098 34833 ft 457 kts 136°
2026-05-05 20:26 48.48468 17.74960 34842 ft 457 kts 136°
2026-05-05 20:27 48.44790 17.80682 34844 ft 457 kts 136°
2026-05-05 20:27 48.40364 17.87562 34854 ft 457 kts 136°
2026-05-05 20:28 48.35958 17.94404 34844 ft 457 kts 136°
2026-05-05 20:28 48.31523 18.01267 34849 ft 457 kts 136°
2026-05-05 20:28 48.29291 18.04708 34690 ft 458 kts 136°
2026-05-05 20:29 48.27105 18.08143 34333 ft 447 kts 135°
2026-05-05 20:29 48.25032 18.11548 33783 ft 440 kts 134°
2026-05-05 20:29 48.23014 18.14966 33491 ft 436 kts 133°
2026-05-05 20:29 48.21041 18.18336 33223 ft 430 kts 133°
2026-05-05 20:30 48.19080 18.21675 32950 ft 422 kts 134°
2026-05-05 20:30 48.17147 18.24939 32683 ft 414 kts 134°
2026-05-05 20:30 48.15225 18.28146 32417 ft 412 kts 134°
2026-05-05 20:30 48.13300 18.31331 32154 ft 412 kts 134°
2026-05-05 20:31 48.11391 18.34474 31538 ft 417 kts 134°
2026-05-05 20:31 48.09410 18.37731 30698 ft 425 kts 134°
2026-05-05 20:31 48.07431 18.40986 30312 ft 419 kts 134°
2026-05-05 20:31 48.05474 18.44212 29813 ft 417 kts 134°
2026-05-05 20:32 48.03545 18.47390 29160 ft 417 kts 134°
2026-05-05 20:32 48.01594 18.50606 28479 ft 418 kts 134°
2026-05-05 20:32 47.99632 18.53832 27816 ft 418 kts 134°
2026-05-05 20:32 47.97666 18.57054 27104 ft 419 kts 134°
2026-05-05 20:33 47.95722 18.60246 26373 ft 421 kts 134°
2026-05-05 20:33 47.93754 18.63504 25655 ft 423 kts 134°
2026-05-05 20:33 47.91792 18.66766 25066 ft 418 kts 134°
2026-05-05 20:33 47.89899 18.69923 24902 ft 394 kts 134°
2026-05-05 20:34 47.88133 18.72862 24772 ft 372 kts 134°
2026-05-05 20:34 47.86451 18.75651 24656 ft 351 kts 135°
2026-05-05 20:34 47.84843 18.78308 24307 ft 340 kts 135°
2026-05-05 20:34 47.83267 18.80902 23821 ft 334 kts 135°
2026-05-05 20:35 47.81717 18.83455 23375 ft 328 kts 135°
2026-05-05 20:35 47.80205 18.85949 22865 ft 323 kts 135°
2026-05-05 20:35 47.78706 18.88417 22317 ft 319 kts 135°
2026-05-05 20:35 47.77220 18.90855 21751 ft 317 kts 135°
2026-05-05 20:36 47.75761 18.93242 21239 ft 314 kts 135°
2026-05-05 20:36 47.74295 18.95639 20741 ft 311 kts 135°
2026-05-05 20:36 47.72848 18.98004 20253 ft 308 kts 135°
2026-05-05 20:36 47.71413 19.00351 19770 ft 305 kts 135°
2026-05-05 20:37 47.70009 19.02647 19277 ft 302 kts 136°
2026-05-05 20:37 47.68601 19.04951 18798 ft 299 kts 136°
2026-05-05 20:37 47.67211 19.07223 18324 ft 296 kts 136°
2026-05-05 20:37 47.65828 19.09482 17844 ft 291 kts 136°
2026-05-05 20:38 47.64502 19.11648 17686 ft 275 kts 136°
2026-05-05 20:38 47.63246 19.13700 17482 ft 261 kts 136°
2026-05-05 20:38 47.62069 19.15619 17304 ft 249 kts 137°
2026-05-05 20:38 47.61016 19.17644 16944 ft 249 kts 122°
2026-05-05 20:39 47.60297 19.19984 16531 ft 250 kts 117°
2026-05-05 20:39 47.59640 19.22366 16120 ft 249 kts 116°
2026-05-05 20:39 47.59002 19.24740 15732 ft 248 kts 116°
2026-05-05 20:39 47.58373 19.27113 15331 ft 247 kts 116°
2026-05-05 20:40 47.57755 19.29478 14951 ft 246 kts 116°
2026-05-05 20:40 47.57146 19.31839 14561 ft 244 kts 116°
2026-05-05 20:40 47.56549 19.34188 14181 ft 243 kts 116°
2026-05-05 20:40 47.55969 19.36501 13804 ft 242 kts 116°
2026-05-05 20:41 47.55390 19.38839 13384 ft 241 kts 116°
2026-05-05 20:41 47.54821 19.41171 12938 ft 241 kts 116°
2026-05-05 20:41 47.54255 19.43507 12506 ft 241 kts 116°
2026-05-05 20:41 47.53692 19.45849 12067 ft 240 kts 116°
2026-05-05 20:42 47.53080 19.48100 11626 ft 235 kts 127°
2026-05-05 20:42 47.52050 19.50093 10187 ft 258 kts 143°
2026-05-05 20:42 47.50873 19.51847 10300 ft 229 kts 138°
2026-05-05 20:42 47.49850 19.53649 9919 ft 228 kts 136°
2026-05-05 20:43 47.48849 19.55477 9462 ft 227 kts 135°
2026-05-05 20:43 47.47845 19.57276 9026 ft 226 kts 136°
2026-05-05 20:43 47.46823 19.58982 8585 ft 221 kts 146°
2026-05-05 20:43 47.45481 19.59953 8150 ft 212 kts 167°
2026-05-05 20:44 47.44063 19.60475 7785 ft 207 kts 170°
2026-05-05 20:44 47.42670 19.60920 7484 ft 201 kts 171°
2026-05-05 20:44 47.41327 19.61335 7219 ft 191 kts 171°
2026-05-05 20:44 47.40056 19.61720 6928 ft 182 kts 171°
2026-05-05 20:45 47.37629 19.62322 6344 ft 175 kts 187°
2026-05-05 20:45 47.36527 19.61640 6049 ft 172 kts 212°
2026-05-05 20:45 47.35559 19.60608 5745 ft 171 kts 216°
2026-05-05 20:46 47.34702 19.59379 5442 ft 172 kts 228°
2026-05-05 20:46 47.33955 19.58037 5146 ft 171 kts 229°
2026-05-05 20:46 47.33200 19.56684 4864 ft 170 kts 229°
2026-05-05 20:46 47.32450 19.55337 4587 ft 168 kts 229°
2026-05-05 20:47 47.31712 19.54007 4308 ft 167 kts 230°
2026-05-05 20:47 47.30983 19.52692 4034 ft 165 kts 230°
2026-05-05 20:47 47.30320 19.51315 3758 ft 165 kts 246°
2026-05-05 20:47 47.30167 19.49650 3485 ft 167 kts 276°
2026-05-05 20:48 47.30634 19.48128 3407 ft 168 kts 304°
2026-05-05 20:48 47.31425 19.46856 3404 ft 168 kts 307°
2026-05-05 20:48 47.32214 19.45595 3278 ft 166 kts 306°
2026-05-05 20:48 47.32997 19.44342 3099 ft 164 kts 306°
2026-05-05 20:49 47.33767 19.43107 2901 ft 164 kts 304°
2026-05-05 20:49 47.34529 19.41884 2691 ft 163 kts 303°
2026-05-05 20:49 47.35291 19.40661 2487 ft 161 kts 303°
2026-05-05 20:49 47.36044 19.39452 2267 ft 160 kts 304°
2026-05-05 20:50 47.36797 19.38240 2055 ft 159 kts 304°
2026-05-05 20:50 47.37535 19.37057 1861 ft 151 kts 303°
2026-05-05 20:50 47.38216 19.35967 1619 ft 138 kts 303°
2026-05-05 20:50 47.38851 19.34929 1496 ft 136 kts 303°
2026-05-05 20:51 47.39496 19.33883 1275 ft 138 kts 306°
2026-05-05 20:51 47.40144 19.32849 1095 ft 140 kts 309°
2026-05-05 20:51 47.40807 19.31782 908 ft 141 kts 311°
2026-05-05 20:51 47.41478 19.30712 742 ft 142 kts 310°
2026-05-05 20:52 47.42144 19.29639 585 ft 141 kts 310°
2026-05-05 20:52 47.42770 19.28612 483 ft 116 kts 312°
2026-05-05 20:52 47.43197 19.27928 489 ft 68 kts 313°
2026-05-05 20:52 47.43464 19.27496 490 ft 46 kts 312°
2026-05-05 20:53 47.43648 19.27193 489 ft 36 kts 307°
2026-05-05 20:53 47.43750 19.26854 489 ft 36 kts 282°
2026-05-05 20:53 47.43791 19.26586 484 ft 12 kts 283°
2026-05-05 20:53 47.43812 19.26451 488 ft 15 kts 282°
2026-05-05 20:54 47.43862 19.26297 485 ft 18 kts 310°
2026-05-05 20:54 47.43907 19.26156 487 ft 16 kts 253°
2026-05-05 20:54 47.43825 19.26034 486 ft 19 kts 223°
2026-05-05 20:54 47.43718 19.25891 487 ft 22 kts 222°
2026-05-05 20:55 47.43593 19.25723 480 ft 26 kts 222°
2026-05-05 20:55 47.43451 19.25533 480 ft 27 kts 222°
2026-05-05 20:55 47.43380 19.25438 479 ft 11 kts 214°
2026-05-05 20:55 47.43311 19.25482 478 ft 14 kts 132°
2026-05-05 20:56 47.43238 19.25600 477 ft 17 kts 132°
2026-05-05 20:56 47.43150 19.25744 477 ft 20 kts 133°
2026-05-05 20:56 47.43069 19.25873 475 ft 3 kts 132°
2026-05-05 20:56 47.43061 19.25886 478 ft 0 kts 132°
2026-05-05 20:57 47.43055 19.25896 477 ft 3 kts 132°
2026-05-05 20:57 47.43043 19.25935 474 ft 5 kts 85°
2026-05-05 20:57 47.43068 19.25979 479 ft 6 kts 43°
2026-05-05 20:57 47.43080 19.25994 477 ft 1 kts 42°
2026-05-05 20:58 47.43083 19.25998 477 ft 0 kts 43°